User: anonymous
Location: Owatonna
(44.0840°N, 93.2260°W)
Time: 10:16:51
(UTC-05:00)
Language:

Tiangong 1 - Orbit

View from above orbital plane
View from above orbital plane
View from above satellite
View from above satellite

Ground track
Ground track

The orbit data is extracted from the following two-line orbital elements,

1 37820U 11053A   14206.12247476  .00010626  00000-0  11270-3 0  2336
2 37820 042.7717 082.2542 0004698 236.8020 254.5465 15.64153764162014
Epoch (UTC): 25 July 2014 02:56:21
Eccentricity: 0.0004698
inclination: 42.7717°
perigee height: 372 km
apogee height: 379 km
right ascension of ascending node: 82.2542°
argument of perigee: 236.8020°
revolutions per day: 15.64153764
mean anomaly at epoch: 254.5465°
orbit number at epoch: 16201

The dashed part of the orbit path shows where the satellite is in the earth's shadow,  

DLR